Weather History for McComb, MS

Change the Weather History Date:

Tuesday, January 15, 2013

  Actual Average Record
Temperature  
Mean Temperature 39 °F -  
Max Temperature 41 °F 58 °F 76 °F (1950)
Min Temperature 37 °F 34 °F 15 °F (1979)
Degree Days  
Heating Degree Days 26    
Moisture  
Dew Point 38 °F    
Average Humidity 96    
Maximum Humidity 100    
Minimum Humidity 93    
Precipitation  
Precipitation 0.62 in - - ()
Sea Level Pressure  
Sea Level Pressure 30.04 in    
Wind  
Wind Speed 6 mph (North)    
Max Wind Speed 10 mph    
Max Gust Speed -    
Visibility 4 miles    
Events Rain , Thunderstorm    
Averages and records for this station are not official NWS values.
T = Trace of Precipitation, MM = Missing Value Source: NWS Daily Summary

Daily Weather History Graph

Daily Weather History Graph

Search for Another Location

Airport:

Trip Planner

Search our weather history database for the weather conditions in past years. The results will help you decide how hot, cold, wet, or windy it might be!

Date:

Astronomy

Jan. 15, 2013 Rise Set
Actual Time 7:00 AM CST 5:22 PM CST
Civil Twilight 6:34 AM CST 5:48 PM CST
Nautical Twilight 6:05 AM CST 6:18 PM CST
Astronomical Twilight 5:35 AM CST 6:47 PM CST
Moon 9:26 AM CST (1/15) 9:49 PM CST (1/15)
Length of Visible Light 11h 13m
Length of Day
10h 21m
Waxing Crescent, 19% of the Moon is Illuminated
Jan 15
Waxing Crescent
Jan 18
First Quarter
Jan 26
Full
Feb 3
Last Quarter
Feb 10
New

Hourly Weather History & Observations

Time (CST) Temp. Windchill Dew Point Humidity Pressure Visibility Wind Dir Wind Speed Gust Speed Precip Events Conditions
12:53 AM 37.9 °F 32.7 °F 36.0 °F 93% 30.09 in 10.0 mi Variable 6.9 mph - N/A   Overcast
1:53 AM 37.9 °F 33.5 °F 37.0 °F 97% 30.09 in 10.0 mi North 5.8 mph - N/A   Overcast
2:16 AM 37.4 °F 32.1 °F 37.4 °F 100% 30.08 in 2.5 mi NNE 6.9 mph - 0.03 in Rain Rain
2:27 AM 37.4 °F 32.8 °F 37.4 °F 100% 30.07 in 8.0 mi NNE 5.8 mph - 0.03 in Rain Light Rain
2:53 AM 37.9 °F 35.5 °F 37.0 °F 97% 30.07 in 8.0 mi NNE 3.5 mph - 0.04 in Rain Light Rain
3:09 AM 39.2 °F 35.9 °F 37.4 °F 93% 30.07 in 10.0 mi NNE 4.6 mph - 0.00 in   Overcast
3:53 AM 39.0 °F 34.0 °F 37.9 °F 96% 30.06 in 10.0 mi North 6.9 mph - 0.00 in   Overcast
4:53 AM 39.0 °F 34.0 °F 37.9 °F 96% 30.06 in 9.0 mi North 6.9 mph - 0.00 in   Overcast
5:53 AM 39.0 °F 34.0 °F 37.9 °F 96% 30.05 in 10.0 mi NNE 6.9 mph - 0.01 in   Overcast
6:09 AM 39.2 °F 34.2 °F 37.4 °F 93% 30.05 in 9.0 mi NNE 6.9 mph - N/A   Overcast
6:53 AM 39.0 °F 35.7 °F 37.9 °F 96% 30.05 in 4.0 mi Variable 4.6 mph - 0.02 in Rain Light Rain
7:53 AM 39.0 °F - 37.9 °F 96% 30.06 in 6.0 mi Calm Calm - 0.00 in Rain Light Rain
8:09 AM 39.2 °F 35.0 °F 37.4 °F 93% 30.05 in 2.5 mi NNE 5.8 mph - 0.08 in Rain , Thunderstorm Heavy Thunderstorms and Rain
8:19 AM 39.2 °F 35.9 °F 37.4 °F 93% 30.06 in 1.5 mi Variable 4.6 mph - 0.21 in Rain , Thunderstorm Heavy Thunderstorms and Rain
8:24 AM 39.2 °F 34.2 °F 37.4 °F 93% 30.07 in 2.0 mi NNW 6.9 mph - 0.25 in Rain Heavy Rain
8:27 AM 39.2 °F 35.0 °F 37.4 °F 93% 30.08 in 1.8 mi NNW 5.8 mph - 0.30 in Rain Heavy Rain
8:51 AM 39.2 °F 35.0 °F 37.4 °F 93% 30.06 in 3.0 mi NE 5.8 mph - 0.48 in Rain Light Rain
8:53 AM 39.0 °F 36.8 °F 37.9 °F 96% 30.06 in 5.0 mi Variable 3.5 mph - 0.48 in Rain Light Rain
9:16 AM 39.2 °F 35.9 °F 37.4 °F 93% 30.07 in 4.0 mi NE 4.6 mph - 0.02 in Rain Rain
9:25 AM 39.2 °F 37.0 °F 37.4 °F 93% 30.08 in 2.5 mi North 3.5 mph - 0.04 in Rain Light Rain
9:34 AM 39.2 °F 34.2 °F 37.4 °F 93% 30.07 in 5.0 mi NE 6.9 mph - 0.04 in Rain Light Rain
9:53 AM 39.0 °F 35.7 °F 37.9 °F 96% 30.07 in 4.0 mi NNE 4.6 mph - 0.05 in Rain Light Rain
10:08 AM 39.2 °F 35.9 °F 37.4 °F 93% 30.06 in 2.0 mi NE 4.6 mph - 0.00 in   Overcast
10:16 AM 39.2 °F 37.0 °F 39.2 °F 100% 30.07 in 1.5 mi Variable 3.5 mph - 0.00 in   Overcast
10:30 AM 39.2 °F 35.9 °F 37.4 °F 93% 30.05 in 2.0 mi ENE 4.6 mph - 0.01 in Rain Light Rain
10:53 AM 39.0 °F 34.0 °F 39.0 °F 100% 30.06 in 1.8 mi North 6.9 mph - 0.01 in   Overcast
11:04 AM 39.2 °F 34.2 °F 39.2 °F 100% 30.05 in 2.0 mi North 6.9 mph - N/A   Overcast
11:45 AM 39.2 °F - 39.2 °F 100% 30.02 in 1.5 mi Calm Calm - N/A   Overcast
11:53 AM 39.9 °F 36.7 °F 39.0 °F 97% 30.03 in 1.2 mi NNE 4.6 mph - N/A   Overcast
12:53 PM 41.0 °F 36.4 °F 39.9 °F 96% 30.01 in 0.8 mi North 6.9 mph - N/A   Overcast
1:36 PM 41.0 °F 37.1 °F 39.2 °F 93% 30.00 in 1.0 mi North 5.8 mph - N/A   Overcast
1:53 PM 41.0 °F 37.1 °F 41.0 °F 100% 30.00 in 1.8 mi North 5.8 mph - N/A   Overcast
2:45 PM 41.0 °F 34.7 °F 39.2 °F 93% 29.99 in 2.0 mi North 10.4 mph - N/A   Overcast
2:53 PM 41.0 °F 37.1 °F 41.0 °F 100% 29.99 in 2.5 mi NNE 5.8 mph - N/A   Overcast
3:25 PM 41.0 °F 34.7 °F 39.2 °F 93% 30.00 in 1.5 mi NNW 10.4 mph - N/A   Overcast
3:53 PM 41.0 °F 36.4 °F 41.0 °F 100% 30.00 in 2.0 mi North 6.9 mph - N/A   Overcast
4:03 PM 41.0 °F 35.8 °F 39.2 °F 93% 30.00 in 1.8 mi North 8.1 mph - N/A   Overcast
4:53 PM 39.9 °F 35.8 °F 39.0 °F 97% 30.00 in 2.5 mi NNE 5.8 mph - N/A   Overcast
5:27 PM 39.2 °F 35.9 °F 39.2 °F 100% 29.99 in 3.0 mi NNE 4.6 mph - N/A   Overcast
5:53 PM 39.9 °F 35.1 °F 39.0 °F 97% 30.01 in 4.0 mi North 6.9 mph - N/A   Overcast
6:33 PM 39.2 °F 35.9 °F 39.2 °F 100% 30.00 in 2.5 mi North 4.6 mph - N/A   Overcast
6:53 PM 39.9 °F 35.1 °F 39.0 °F 97% 30.01 in 3.0 mi North 6.9 mph - N/A   Overcast
7:53 PM 39.0 °F 34.0 °F 39.0 °F 100% 30.02 in 7.0 mi North 6.9 mph - N/A   Overcast
8:53 PM 39.0 °F 34.8 °F 39.0 °F 100% 30.02 in 3.0 mi NNW 5.8 mph - N/A   Overcast
9:31 PM 39.2 °F 33.6 °F 37.4 °F 93% 30.02 in 10.0 mi North 8.1 mph - 0.01 in   Overcast
9:53 PM 39.0 °F 32.8 °F 37.0 °F 93% 30.02 in 10.0 mi NNW 9.2 mph - 0.01 in   Overcast
10:53 PM 37.9 °F 31.5 °F 36.0 °F 93% 30.03 in 10.0 mi NNW 9.2 mph - N/A   Overcast